Time,TemperatureF,DewpointF,PressureIn,WindDirection,WindDirectionDegrees,WindSpeedMPH,WindSpeedGustMPH,Humidity,HourlyPrecipIn,Conditions,Clouds,dailyrainin,SoftwareType,DateUTC
2013-01-27 00:03:00,22.0,14.0,30.42,NW,326,5.0,8.0,70,0.00,,,0.00,,2013-01-27 05:03:00,
2013-01-27 00:12:00,22.0,14.0,30.42,NW,326,5.0,8.0,70,0.00,,,0.00,,2013-01-27 05:12:00,
2013-01-27 00:22:00,21.0,13.0,30.43,WNW,300,5.0,7.0,71,0.00,,,0.00,,2013-01-27 05:22:00,
2013-01-27 00:32:00,21.0,13.0,30.43,WNW,300,5.0,7.0,71,0.00,,,0.00,,2013-01-27 05:32:00,
2013-01-27 00:42:00,21.0,13.0,30.43,WNW,300,5.0,7.0,71,0.00,,,0.00,,2013-01-27 05:42:00,
2013-01-27 00:52:00,21.0,13.0,30.43,WNW,301,3.0,7.0,71,0.00,,,0.00,,2013-01-27 05:52:00,
2013-01-27 01:02:00,21.0,13.0,30.43,WNW,301,3.0,7.0,71,0.00,,,0.00,,2013-01-27 06:02:00,
2013-01-27 01:11:00,21.0,13.0,30.43,WNW,301,3.0,7.0,71,0.00,,,0.00,,2013-01-27 06:11:00,
2013-01-27 01:21:00,21.0,13.0,30.44,NW,307,4.0,6.0,71,0.00,,,0.00,,2013-01-27 06:21:00,
2013-01-27 01:32:00,21.0,13.0,30.44,NW,307,4.0,6.0,71,0.00,,,0.00,,2013-01-27 06:32:00,
2013-01-27 01:42:00,21.0,13.0,30.44,NW,307,4.0,6.0,71,0.00,,,0.00,,2013-01-27 06:42:00,
2013-01-27 01:52:00,20.0,12.0,30.45,NNW,328,4.0,6.0,72,0.00,,,0.00,,2013-01-27 06:52:00,
2013-01-27 02:01:00,20.0,12.0,30.45,NNW,328,4.0,6.0,72,0.00,,,0.00,,2013-01-27 07:01:00,
2013-01-27 02:14:00,20.0,12.0,30.45,NNW,328,4.0,6.0,72,0.00,,,0.00,,2013-01-27 07:14:00,
2013-01-27 02:21:00,20.0,12.0,30.47,NW,309,3.0,5.0,72,0.00,,,0.00,,2013-01-27 07:21:00,
2013-01-27 02:32:00,20.0,12.0,30.47,NW,309,3.0,5.0,72,0.00,,,0.00,,2013-01-27 07:32:00,
2013-01-27 02:42:00,20.0,12.0,30.47,NW,309,3.0,5.0,72,0.00,,,0.00,,2013-01-27 07:42:00,
2013-01-27 02:52:00,19.0,12.0,30.47,NW,311,1.0,5.0,74,0.00,,,0.00,,2013-01-27 07:52:00,
2013-01-27 03:01:00,19.0,12.0,30.47,NW,311,1.0,5.0,74,0.00,,,0.00,,2013-01-27 08:01:00,
2013-01-27 03:12:00,19.0,12.0,30.47,NW,311,1.0,5.0,74,0.00,,,0.00,,2013-01-27 08:12:00,
2013-01-27 03:22:00,20.0,13.0,30.48,WNW,298,3.0,6.0,73,0.00,,,0.00,,2013-01-27 08:22:00,
2013-01-27 03:32:00,20.0,13.0,30.48,WNW,298,3.0,6.0,73,0.00,,,0.00,,2013-01-27 08:32:00,
2013-01-27 03:42:00,20.0,13.0,30.48,WNW,298,3.0,6.0,73,0.00,,,0.00,,2013-01-27 08:42:00,
2013-01-27 03:52:00,20.0,12.0,30.47,WNW,284,0.0,6.0,72,0.00,,,0.00,,2013-01-27 08:52:00,
2013-01-27 04:03:00,20.0,12.0,30.47,WNW,284,0.0,6.0,72,0.00,,,0.00,,2013-01-27 09:03:00,
2013-01-27 04:11:00,20.0,12.0,30.47,WNW,284,0.0,6.0,72,0.00,,,0.00,,2013-01-27 09:11:00,
2013-01-27 04:21:00,19.0,11.0,30.48,WNW,292,5.0,6.0,72,0.00,,,0.00,,2013-01-27 09:21:00,
2013-01-27 04:31:00,19.0,12.0,30.49,WNW,301,3.0,7.0,75,0.00,,,0.00,,2013-01-27 09:31:00,
2013-01-27 04:32:00,19.0,11.0,30.48,WNW,292,5.0,6.0,72,0.00,,,0.00,,2013-01-27 09:32:00,
2013-01-27 04:42:00,19.0,11.0,30.48,WNW,292,5.0,6.0,72,0.00,,,0.00,,2013-01-27 09:42:00,
2013-01-27 04:52:00,19.0,12.0,30.49,WNW,301,3.0,7.0,75,0.00,,,0.00,,2013-01-27 09:52:00,
2013-01-27 05:01:00,19.0,12.0,30.49,WNW,301,3.0,7.0,75,0.00,,,0.00,,2013-01-27 10:01:00,
2013-01-27 05:11:00,19.0,12.0,30.49,WNW,301,3.0,7.0,75,0.00,,,0.00,,2013-01-27 10:11:00,
2013-01-27 05:21:00,19.0,12.0,30.49,WNW,301,3.0,7.0,75,0.00,,,0.00,,2013-01-27 10:21:00,
2013-01-27 05:52:00,20.0,13.0,30.50,NW,308,4.0,7.0,74,0.00,,,0.00,,2013-01-27 10:52:00,
2013-01-27 06:01:00,20.0,13.0,30.50,NW,308,4.0,7.0,74,0.00,,,0.00,,2013-01-27 11:01:00,
2013-01-27 06:11:00,20.0,13.0,30.50,NW,308,4.0,7.0,74,0.00,,,0.00,,2013-01-27 11:11:00,
2013-01-27 06:22:00,20.0,12.0,30.50,WNW,301,1.0,5.0,72,0.00,,,0.00,,2013-01-27 11:22:00,
2013-01-27 06:32:00,20.0,12.0,30.50,WNW,301,1.0,5.0,72,0.00,,,0.00,,2013-01-27 11:32:00,
2013-01-27 06:42:00,20.0,12.0,30.50,WNW,301,1.0,5.0,72,0.00,,,0.00,,2013-01-27 11:42:00,
2013-01-27 06:52:00,20.0,13.0,30.50,West,277,1.0,4.0,73,0.00,,,0.00,,2013-01-27 11:52:00,
2013-01-27 07:02:00,20.0,13.0,30.50,West,277,1.0,4.0,73,0.00,,,0.00,,2013-01-27 12:02:00,
2013-01-27 07:12:00,20.0,13.0,30.50,West,277,1.0,4.0,73,0.00,,,0.00,,2013-01-27 12:12:00,
2013-01-27 07:22:00,20.0,13.0,30.52,WNW,293,3.0,5.0,74,0.00,,,0.00,,2013-01-27 12:22:00,
2013-01-27 07:32:00,20.0,13.0,30.52,WNW,293,3.0,5.0,74,0.00,,,0.00,,2013-01-27 12:32:00,
2013-01-27 07:42:00,20.0,13.0,30.52,WNW,293,3.0,5.0,74,0.00,,,0.00,,2013-01-27 12:42:00,
2013-01-27 07:52:00,20.0,12.0,30.53,WNW,297,0.0,5.0,72,0.00,,,0.00,,2013-01-27 12:52:00,
2013-01-27 08:02:00,20.0,12.0,30.53,WNW,297,0.0,5.0,72,0.00,,,0.00,,2013-01-27 13:02:00,
2013-01-27 08:12:00,20.0,12.0,30.53,WNW,297,0.0,5.0,72,0.00,,,0.00,,2013-01-27 13:12:00,
2013-01-27 08:22:00,21.0,13.0,30.54,NW,323,2.0,5.0,71,0.00,,,0.00,,2013-01-27 13:22:00,
2013-01-27 08:32:00,21.0,13.0,30.54,NW,323,2.0,5.0,71,0.00,,,0.00,,2013-01-27 13:32:00,
2013-01-27 08:42:00,21.0,13.0,30.54,NW,323,2.0,5.0,71,0.00,,,0.00,,2013-01-27 13:42:00,
2013-01-27 08:52:00,24.0,14.0,30.55,NNW,338,3.0,8.0,66,0.00,,,0.00,,2013-01-27 13:52:00,
2013-01-27 09:02:00,24.0,14.0,30.55,NNW,338,3.0,8.0,66,0.00,,,0.00,,2013-01-27 14:02:00,
2013-01-27 09:12:00,24.0,14.0,30.55,NNW,338,3.0,8.0,66,0.00,,,0.00,,2013-01-27 14:12:00,
2013-01-27 09:22:00,27.0,16.0,30.56,NNW,333,6.0,11.0,63,0.00,,,0.00,,2013-01-27 14:22:00,
2013-01-27 09:33:00,27.0,16.0,30.56,NNW,333,6.0,11.0,63,0.00,,,0.00,,2013-01-27 14:33:00,
2013-01-27 09:43:00,27.0,16.0,30.56,NNW,333,6.0,11.0,63,0.00,,,0.00,,2013-01-27 14:43:00,
2013-01-27 09:53:00,28.0,16.0,30.57,NNW,341,9.0,12.0,59,0.00,,,0.00,,2013-01-27 14:53:00,
2013-01-27 10:02:00,28.0,16.0,30.57,NNW,341,9.0,12.0,59,0.00,,,0.00,,2013-01-27 15:02:00,
2013-01-27 10:12:00,28.0,16.0,30.57,NNW,341,9.0,12.0,59,0.00,,,0.00,,2013-01-27 15:12:00,
2013-01-27 10:22:00,29.0,16.0,30.57,NNW,335,8.0,12.0,57,0.00,,,0.00,,2013-01-27 15:22:00,
2013-01-27 10:32:00,29.0,16.0,30.57,NNW,335,8.0,12.0,57,0.00,,,0.00,,2013-01-27 15:32:00,
2013-01-27 10:42:00,29.0,16.0,30.57,NNW,335,8.0,12.0,57,0.00,,,0.00,,2013-01-27 15:42:00,
2013-01-27 10:53:00,31.0,16.0,30.58,NW,321,7.0,12.0,54,0.00,,,0.00,,2013-01-27 15:53:00,
2013-01-27 11:02:00,31.0,16.0,30.58,NW,321,7.0,12.0,54,0.00,,,0.00,,2013-01-27 16:02:00,
2013-01-27 11:12:00,31.0,16.0,30.58,NW,321,7.0,12.0,54,0.00,,,0.00,,2013-01-27 16:12:00,
2013-01-27 11:22:00,31.0,16.0,30.57,NW,326,6.0,12.0,54,0.00,,,0.00,,2013-01-27 16:22:00,
2013-01-27 11:32:00,31.0,16.0,30.57,NW,326,6.0,12.0,54,0.00,,,0.00,,2013-01-27 16:32:00,
2013-01-27 11:42:00,31.0,16.0,30.57,NW,326,6.0,12.0,54,0.00,,,0.00,,2013-01-27 16:42:00,
2013-01-27 11:53:00,32.0,15.0,30.56,NNW,329,6.0,13.0,49,0.00,,,0.00,,2013-01-27 16:53:00,
2013-01-27 12:02:00,32.0,15.0,30.56,NNW,329,6.0,13.0,49,0.00,,,0.00,,2013-01-27 17:02:00,
2013-01-27 12:12:00,32.0,15.0,30.56,NNW,329,6.0,13.0,49,0.00,,,0.00,,2013-01-27 17:12:00,
2013-01-27 12:22:00,33.0,16.0,30.54,WNW,290,2.0,12.0,50,0.00,,,0.00,,2013-01-27 17:22:00,
2013-01-27 12:32:00,33.0,16.0,30.54,WNW,290,2.0,12.0,50,0.00,,,0.00,,2013-01-27 17:32:00,
2013-01-27 12:42:00,33.0,16.0,30.54,WNW,290,2.0,12.0,50,0.00,,,0.00,,2013-01-27 17:42:00,
2013-01-27 12:53:00,34.0,16.0,30.53,WNW,295,5.0,12.0,47,0.00,,,0.00,,2013-01-27 17:53:00,
2013-01-27 13:02:00,34.0,16.0,30.53,WNW,295,5.0,12.0,47,0.00,,,0.00,,2013-01-27 18:02:00,
2013-01-27 13:12:00,34.0,16.0,30.53,WNW,295,5.0,12.0,47,0.00,,,0.00,,2013-01-27 18:12:00,
2013-01-27 13:23:00,35.0,16.0,30.52,NW,316,4.0,13.0,46,0.00,,,0.00,,2013-01-27 18:23:00,
2013-01-27 13:32:00,35.0,16.0,30.52,NW,316,4.0,13.0,46,0.00,,,0.00,,2013-01-27 18:32:00,
2013-01-27 13:42:00,35.0,16.0,30.52,NW,316,4.0,13.0,46,0.00,,,0.00,,2013-01-27 18:42:00,
2013-01-27 13:53:00,36.0,16.0,30.51,NNW,346,2.0,12.0,43,0.00,,,0.00,,2013-01-27 18:53:00,
2013-01-27 14:02:00,36.0,16.0,30.51,NNW,346,2.0,12.0,43,0.00,,,0.00,,2013-01-27 19:02:00,
2013-01-27 14:12:00,36.0,16.0,30.51,NNW,346,2.0,12.0,43,0.00,,,0.00,,2013-01-27 19:12:00,
2013-01-27 14:22:00,36.0,19.0,30.50,WSW,238,3.0,14.0,50,0.00,,,0.00,,2013-01-27 19:22:00,
2013-01-27 14:32:00,36.0,19.0,30.50,WSW,238,3.0,14.0,50,0.00,,,0.00,,2013-01-27 19:32:00,
2013-01-27 14:42:00,36.0,19.0,30.50,WSW,238,3.0,14.0,50,0.00,,,0.00,,2013-01-27 19:42:00,
2013-01-27 14:52:00,36.0,20.0,30.50,WNW,288,7.0,13.0,51,0.00,,,0.00,,2013-01-27 19:52:00,
2013-01-27 15:02:00,36.0,20.0,30.50,WNW,288,7.0,13.0,51,0.00,,,0.00,,2013-01-27 20:02:00,
2013-01-27 15:12:00,36.0,20.0,30.50,WNW,288,7.0,13.0,51,0.00,,,0.00,,2013-01-27 20:12:00,
2013-01-27 15:22:00,36.0,20.0,30.50,WNW,294,7.0,15.0,51,0.00,,,0.00,,2013-01-27 20:22:00,
2013-01-27 15:33:00,36.0,20.0,30.50,WNW,294,7.0,15.0,51,0.00,,,0.00,,2013-01-27 20:33:00,
2013-01-27 15:42:00,36.0,20.0,30.50,WNW,294,7.0,15.0,51,0.00,,,0.00,,2013-01-27 20:42:00,
2013-01-27 15:52:00,35.0,19.0,30.50,West,265,5.0,14.0,51,0.00,,,0.00,,2013-01-27 20:52:00,
2013-01-27 16:02:00,35.0,19.0,30.50,West,265,5.0,14.0,51,0.00,,,0.00,,2013-01-27 21:02:00,
2013-01-27 16:12:00,35.0,19.0,30.50,West,265,5.0,14.0,51,0.00,,,0.00,,2013-01-27 21:12:00,
2013-01-27 16:22:00,35.0,20.0,30.51,WSW,252,7.0,15.0,53,0.00,,,0.00,,2013-01-27 21:22:00,
2013-01-27 16:33:00,35.0,20.0,30.51,WSW,252,7.0,15.0,53,0.00,,,0.00,,2013-01-27 21:33:00,
2013-01-27 16:43:00,35.0,20.0,30.51,WSW,252,7.0,15.0,53,0.00,,,0.00,,2013-01-27 21:43:00,
2013-01-27 16:52:00,35.0,20.0,30.51,WSW,252,3.0,13.0,54,0.00,,,0.00,,2013-01-27 21:52:00,
2013-01-27 17:02:00,35.0,20.0,30.51,WSW,252,3.0,13.0,54,0.00,,,0.00,,2013-01-27 22:02:00,
2013-01-27 17:12:00,35.0,20.0,30.51,WSW,252,3.0,13.0,54,0.00,,,0.00,,2013-01-27 22:12:00,
2013-01-27 17:22:00,33.0,19.0,30.51,West,259,5.0,12.0,56,0.00,,,0.00,,2013-01-27 22:22:00,
2013-01-27 17:32:00,33.0,19.0,30.51,West,259,5.0,12.0,56,0.00,,,0.00,,2013-01-27 22:32:00,
2013-01-27 17:42:00,33.0,19.0,30.51,West,259,5.0,12.0,56,0.00,,,0.00,,2013-01-27 22:42:00,
2013-01-27 17:52:00,32.0,20.0,30.52,NW,314,4.0,10.0,61,0.00,,,0.00,,2013-01-27 22:52:00,
2013-01-27 18:02:00,32.0,20.0,30.52,NW,314,4.0,10.0,61,0.00,,,0.00,,2013-01-27 23:02:00,
2013-01-27 18:12:00,32.0,20.0,30.52,NW,314,4.0,10.0,61,0.00,,,0.00,,2013-01-27 23:12:00,
2013-01-27 18:22:00,30.0,20.0,30.54,SW,233,2.0,8.0,65,0.00,,,0.00,,2013-01-27 23:22:00,
2013-01-27 18:32:00,30.0,20.0,30.54,SW,233,2.0,8.0,65,0.00,,,0.00,,2013-01-27 23:32:00,
2013-01-27 18:42:00,30.0,20.0,30.54,SW,233,2.0,8.0,65,0.00,,,0.00,,2013-01-27 23:42:00,
2013-01-27 18:53:00,30.0,20.0,30.55,WNW,295,2.0,5.0,67,0.00,,,0.00,,2013-01-27 23:53:00,
2013-01-27 19:02:00,30.0,20.0,30.55,WNW,295,2.0,5.0,67,0.00,,,0.00,,2013-01-28 00:02:00,
2013-01-27 19:12:00,30.0,20.0,30.55,WNW,295,2.0,5.0,67,0.00,,,0.00,,2013-01-28 00:12:00,
2013-01-27 19:22:00,30.0,20.0,30.55,WSW,256,2.0,3.0,66,0.00,,,0.00,,2013-01-28 00:22:00,
2013-01-27 19:32:00,30.0,20.0,30.55,WSW,256,2.0,3.0,66,0.00,,,0.00,,2013-01-28 00:32:00,
2013-01-27 19:42:00,30.0,20.0,30.55,WSW,256,2.0,3.0,66,0.00,,,0.00,,2013-01-28 00:42:00,
2013-01-27 19:52:00,29.0,21.0,30.54,WSW,255,0.0,3.0,71,0.00,,,0.00,,2013-01-28 00:52:00,
2013-01-27 20:02:00,29.0,21.0,30.54,WSW,255,0.0,3.0,71,0.00,,,0.00,,2013-01-28 01:02:00,
2013-01-27 20:12:00,29.0,21.0,30.54,WSW,255,0.0,3.0,71,0.00,,,0.00,,2013-01-28 01:12:00,
2013-01-27 20:22:00,29.0,21.0,30.54,WSW,248,2.0,3.0,71,0.00,,,0.00,,2013-01-28 01:22:00,
2013-01-27 20:33:00,29.0,21.0,30.54,WSW,248,2.0,3.0,71,0.00,,,0.00,,2013-01-28 01:33:00,
2013-01-27 20:42:00,29.0,21.0,30.54,WSW,248,2.0,3.0,71,0.00,,,0.00,,2013-01-28 01:42:00,
2013-01-27 20:52:00,28.0,22.0,30.53,SW,222,1.0,3.0,77,0.00,,,0.00,,2013-01-28 01:52:00,
2013-01-27 21:02:00,28.0,22.0,30.53,SW,222,1.0,3.0,77,0.00,,,0.00,,2013-01-28 02:02:00,
2013-01-27 21:11:00,28.0,22.0,30.53,SW,222,1.0,3.0,77,0.00,,,0.00,,2013-01-28 02:11:00,
2013-01-27 21:22:00,28.0,23.0,30.53,WSW,248,2.0,3.0,81,0.00,,,0.00,,2013-01-28 02:22:00,
2013-01-27 21:32:00,28.0,23.0,30.53,WSW,248,2.0,3.0,81,0.00,,,0.00,,2013-01-28 02:32:00,
2013-01-27 21:42:00,28.0,23.0,30.53,WSW,248,2.0,3.0,81,0.00,,,0.00,,2013-01-28 02:42:00,
2013-01-27 21:53:00,27.0,23.0,30.55,SW,218,1.0,3.0,84,0.00,,,0.00,,2013-01-28 02:53:00,
2013-01-27 22:02:00,27.0,23.0,30.55,SW,218,1.0,3.0,84,0.00,,,0.00,,2013-01-28 03:02:00,
2013-01-27 22:12:00,27.0,23.0,30.55,SW,218,1.0,3.0,84,0.00,,,0.00,,2013-01-28 03:12:00,
2013-01-27 22:22:00,27.0,22.0,30.54,SW,214,2.0,4.0,80,0.00,,,0.00,,2013-01-28 03:22:00,
2013-01-27 22:32:00,27.0,22.0,30.54,SW,214,2.0,4.0,80,0.00,,,0.00,,2013-01-28 03:32:00,
2013-01-27 22:42:00,27.0,22.0,30.54,SW,214,2.0,4.0,80,0.00,,,0.00,,2013-01-28 03:42:00,
2013-01-27 22:53:00,28.0,23.0,30.53,WSW,255,0.0,3.0,81,0.00,,,0.00,,2013-01-28 03:53:00,
2013-01-27 23:02:00,28.0,23.0,30.53,WSW,255,0.0,3.0,81,0.00,,,0.00,,2013-01-28 04:02:00,
2013-01-27 23:12:00,28.0,23.0,30.53,WSW,255,0.0,3.0,81,0.00,,,0.00,,2013-01-28 04:12:00,
2013-01-27 23:22:00,28.0,23.0,30.53,SW,235,1.0,2.0,82,0.00,,,0.00,,2013-01-28 04:22:00,
2013-01-27 23:32:00,28.0,23.0,30.53,SW,235,1.0,2.0,82,0.00,,,0.00,,2013-01-28 04:32:00,
2013-01-27 23:42:00,28.0,23.0,30.53,SW,235,1.0,2.0,82,0.00,,,0.00,,2013-01-28 04:42:00,
2013-01-27 23:52:00,28.0,23.0,30.53,SW,215,2.0,3.0,80,0.00,,,0.00,,2013-01-28 04:52:00,